Time,TemperatureF,DewpointF,PressureIn,WindDirection,WindDirectionDegrees,WindSpeedMPH,WindSpeedGustMPH,Humidity,HourlyPrecipIn,Conditions,Clouds,dailyrainin,SoftwareType,DateUTC
2013-02-21 00:00:00,46.9,-99.9,29.97,WNW,293,0.0,0.0,-999,-99.99,,,-99.99,,2013-02-21 08:00:00,
2013-02-21 00:05:00,46.8,-99.9,29.97,WNW,293,0.0,0.0,-999,-99.99,,,-99.99,,2013-02-21 08:05:00,
2013-02-21 00:10:00,46.7,-99.9,29.97,WNW,293,0.0,0.0,-999,-99.99,,,-99.99,,2013-02-21 08:10:00,
2013-02-21 00:15:00,46.9,-99.9,29.97,WNW,293,0.0,0.0,-999,-99.99,,,-99.99,,2013-02-21 08:15:00,
2013-02-21 00:20:00,46.8,-99.9,29.97,WNW,293,0.0,0.0,-999,-99.99,,,-99.99,,2013-02-21 08:20:00,
2013-02-21 00:25:00,46.6,-99.9,29.97,WNW,293,0.0,0.0,-999,-99.99,,,-99.99,,2013-02-21 08:25:00,
2013-02-21 00:30:00,46.6,-99.9,29.97,WNW,293,0.0,0.0,-999,-99.99,,,-99.99,,2013-02-21 08:30:00,
2013-02-21 00:35:00,46.4,-99.9,29.97,WNW,293,0.0,0.0,-999,-99.99,,,-99.99,,2013-02-21 08:35:00,
2013-02-21 00:40:00,46.4,-99.9,29.97,WNW,293,0.0,0.0,-999,-99.99,,,-99.99,,2013-02-21 08:40:00,
2013-02-21 00:45:00,46.4,-99.9,29.97,WNW,293,0.0,0.0,-999,-99.99,,,-99.99,,2013-02-21 08:45:00,
2013-02-21 00:50:00,46.6,-99.9,29.96,WNW,293,0.0,0.0,-999,-99.99,,,-99.99,,2013-02-21 08:50:00,
2013-02-21 00:55:00,46.4,-99.9,29.96,WSW,245,0.0,0.0,-999,-99.99,,,-99.99,,2013-02-21 08:55:00,
2013-02-21 01:00:00,46.3,-99.9,29.97,West,266,0.0,0.0,-999,-99.99,,,-99.99,,2013-02-21 09:00:00,
2013-02-21 01:05:00,46.4,-99.9,29.97,West,266,0.0,6.8,-999,-99.99,,,-99.99,,2013-02-21 09:05:00,
2013-02-21 01:10:00,46.3,-99.9,29.97,West,266,0.0,0.0,-999,-99.99,,,-99.99,,2013-02-21 09:10:00,
2013-02-21 01:15:00,46.3,-99.9,29.97,West,266,0.0,0.0,-999,-99.99,,,-99.99,,2013-02-21 09:15:00,
2013-02-21 01:20:00,46.3,-99.9,29.97,West,266,0.0,0.0,-999,-99.99,,,-99.99,,2013-02-21 09:20:00,
2013-02-21 01:25:00,46.5,-99.9,29.97,West,266,0.0,0.0,-999,-99.99,,,-99.99,,2013-02-21 09:25:00,
2013-02-21 01:30:00,46.4,-99.9,29.97,West,266,0.0,0.0,-999,-99.99,,,-99.99,,2013-02-21 09:30:00,
2013-02-21 01:35:00,46.3,-99.9,29.97,West,266,0.0,0.0,-999,-99.99,,,-99.99,,2013-02-21 09:35:00,
2013-02-21 01:40:00,46.2,-99.9,29.97,West,266,0.0,0.0,-999,-99.99,,,-99.99,,2013-02-21 09:40:00,
2013-02-21 01:45:00,46.3,-99.9,29.97,West,266,0.0,0.0,-999,-99.99,,,-99.99,,2013-02-21 09:45:00,
2013-02-21 01:50:00,45.9,-99.9,29.97,West,266,0.0,0.0,-999,-99.99,,,-99.99,,2013-02-21 09:50:00,
2013-02-21 01:55:00,46.2,-99.9,29.97,West,266,0.0,0.0,-999,-99.99,,,-99.99,,2013-02-21 09:55:00,
2013-02-21 02:00:00,46.0,-99.9,29.97,West,266,0.0,0.0,-999,-99.99,,,-99.99,,2013-02-21 10:00:00,
2013-02-21 02:05:00,45.9,-99.9,29.97,West,266,0.0,0.0,-999,-99.99,,,-99.99,,2013-02-21 10:05:00,
2013-02-21 02:10:00,46.1,-99.9,29.97,West,266,0.0,0.0,-999,-99.99,,,-99.99,,2013-02-21 10:10:00,
2013-02-21 02:15:00,46.0,-99.9,29.97,West,266,0.0,0.0,-999,-99.99,,,-99.99,,2013-02-21 10:15:00,
2013-02-21 02:20:00,45.7,-99.9,29.97,West,266,0.0,0.0,-999,-99.99,,,-99.99,,2013-02-21 10:20:00,
2013-02-21 02:25:00,45.9,-99.9,29.96,West,266,0.0,0.0,-999,-99.99,,,-99.99,,2013-02-21 10:25:00,
2013-02-21 02:30:00,45.9,-99.9,29.96,West,266,0.0,0.0,-999,-99.99,,,-99.99,,2013-02-21 10:30:00,
2013-02-21 02:35:00,45.6,-99.9,29.96,West,266,0.0,0.0,-999,-99.99,,,-99.99,,2013-02-21 10:35:00,
2013-02-21 02:40:00,45.5,-99.9,29.96,West,266,0.0,0.0,-999,-99.99,,,-99.99,,2013-02-21 10:40:00,
2013-02-21 02:45:00,45.2,-99.9,29.96,West,266,0.0,0.0,-999,-99.99,,,-99.99,,2013-02-21 10:45:00,
2013-02-21 02:50:00,45.2,-99.9,29.96,West,266,0.0,0.0,-999,-99.99,,,-99.99,,2013-02-21 10:50:00,
2013-02-21 02:55:00,45.2,-99.9,29.96,West,266,0.0,0.0,-999,-99.99,,,-99.99,,2013-02-21 10:55:00,
2013-02-21 03:00:00,45.1,-99.9,29.96,WNW,289,0.0,0.0,-999,-99.99,,,-99.99,,2013-02-21 11:00:00,
2013-02-21 03:05:00,45.0,-99.9,29.96,SW,230,0.0,0.0,-999,-99.99,,,-99.99,,2013-02-21 11:05:00,
2013-02-21 03:10:00,44.9,-99.9,29.96,SW,235,0.0,13.5,-999,-99.99,,,-99.99,,2013-02-21 11:10:00,
2013-02-21 03:15:00,45.0,-99.9,29.96,SW,235,0.0,0.0,-999,-99.99,,,-99.99,,2013-02-21 11:15:00,
2013-02-21 03:20:00,45.0,-99.9,29.96,SW,235,0.0,0.0,-999,-99.99,,,-99.99,,2013-02-21 11:20:00,
2013-02-21 03:25:00,44.8,-99.9,29.96,SW,235,0.0,0.0,-999,-99.99,,,-99.99,,2013-02-21 11:25:00,
2013-02-21 03:30:00,44.8,-99.9,29.96,SW,235,0.0,0.0,-999,-99.99,,,-99.99,,2013-02-21 11:30:00,
2013-02-21 03:35:00,44.9,-99.9,29.96,SW,235,0.0,0.0,-999,-99.99,,,-99.99,,2013-02-21 11:35:00,
2013-02-21 03:40:00,44.7,-99.9,29.96,SW,235,0.0,0.0,-999,-99.99,,,-99.99,,2013-02-21 11:40:00,
2013-02-21 03:45:00,44.6,-99.9,29.96,SW,235,0.0,0.0,-999,-99.99,,,-99.99,,2013-02-21 11:45:00,
2013-02-21 03:50:00,44.6,-99.9,29.96,SW,235,0.0,0.0,-999,-99.99,,,-99.99,,2013-02-21 11:50:00,
2013-02-21 04:00:00,44.6,-99.9,29.96,SW,235,0.0,0.0,-999,-99.99,,,-99.99,,2013-02-21 12:00:00,
2013-02-21 04:05:00,44.6,-99.9,29.96,SW,235,0.0,0.0,-999,-99.99,,,-99.99,,2013-02-21 12:05:00,
2013-02-21 04:10:00,44.2,-99.9,29.96,SW,235,0.0,0.0,-999,-99.99,,,-99.99,,2013-02-21 12:10:00,
2013-02-21 04:15:00,44.4,-99.9,29.96,SW,235,0.0,0.0,-999,-99.99,,,-99.99,,2013-02-21 12:15:00,
2013-02-21 04:20:00,44.4,-99.9,29.96,SW,235,0.0,0.0,-999,-99.99,,,-99.99,,2013-02-21 12:20:00,
2013-02-21 04:30:00,44.3,-99.9,29.97,SW,235,0.0,0.0,-999,-99.99,,,-99.99,,2013-02-21 12:30:00,
2013-02-21 04:35:00,44.3,-99.9,29.97,WSW,248,0.0,0.0,-999,-99.99,,,-99.99,,2013-02-21 12:35:00,
2013-02-21 04:40:00,44.1,-99.9,29.97,WSW,248,0.0,0.0,-999,-99.99,,,-99.99,,2013-02-21 12:40:00,
2013-02-21 04:45:00,44.0,-99.9,29.97,West,278,0.0,0.0,-999,-99.99,,,-99.99,,2013-02-21 12:45:00,
2013-02-21 04:50:00,44.0,-99.9,29.97,SW,228,0.0,0.0,-999,-99.99,,,-99.99,,2013-02-21 12:50:00,
2013-02-21 05:00:00,43.9,-99.9,29.98,SW,228,0.0,0.0,-999,-99.99,,,-99.99,,2013-02-21 13:00:00,
2013-02-21 05:05:00,43.9,-99.9,29.98,SW,228,0.0,0.0,-999,-99.99,,,-99.99,,2013-02-21 13:05:00,
2013-02-21 05:10:00,43.9,-99.9,29.99,SW,228,0.0,0.0,-999,-99.99,,,-99.99,,2013-02-21 13:10:00,
2013-02-21 05:15:00,43.8,-99.9,29.99,SW,228,0.0,0.0,-999,-99.99,,,-99.99,,2013-02-21 13:15:00,
2013-02-21 05:20:00,43.9,-99.9,29.98,SW,228,0.0,0.0,-999,-99.99,,,-99.99,,2013-02-21 13:20:00,
2013-02-21 05:25:00,43.9,-99.9,29.98,SW,228,0.0,0.0,-999,-99.99,,,-99.99,,2013-02-21 13:25:00,
2013-02-21 05:30:00,43.5,-99.9,29.98,SW,228,0.0,0.0,-999,-99.99,,,-99.99,,2013-02-21 13:30:00,
2013-02-21 05:40:00,43.6,-99.9,29.98,SW,228,0.0,0.0,-999,-99.99,,,-99.99,,2013-02-21 13:40:00,
2013-02-21 05:45:00,43.5,-99.9,29.98,SW,228,0.0,0.0,-999,-99.99,,,-99.99,,2013-02-21 13:45:00,
2013-02-21 05:50:00,43.1,-99.9,29.98,SW,228,0.0,0.0,-999,-99.99,,,-99.99,,2013-02-21 13:50:00,
2013-02-21 05:55:00,43.0,-99.9,29.99,SW,228,0.0,0.0,-999,-99.99,,,-99.99,,2013-02-21 13:55:00,
2013-02-21 06:00:00,43.5,-99.9,29.99,SW,228,0.0,0.0,-999,-99.99,,,-99.99,,2013-02-21 14:00:00,
2013-02-21 06:10:00,43.0,-99.9,29.99,SW,228,0.0,0.0,-999,-99.99,,,-99.99,,2013-02-21 14:10:00,
2013-02-21 06:15:00,43.0,-99.9,30.00,SW,228,0.0,0.0,-999,-99.99,,,-99.99,,2013-02-21 14:15:00,
2013-02-21 06:20:00,42.9,-99.9,30.00,SW,228,0.0,0.0,-999,-99.99,,,-99.99,,2013-02-21 14:20:00,
2013-02-21 06:25:00,42.8,-99.9,30.00,SW,228,0.0,0.0,-999,-99.99,,,-99.99,,2013-02-21 14:25:00,
2013-02-21 06:30:00,43.3,-99.9,29.99,SW,228,0.0,0.0,-999,-99.99,,,-99.99,,2013-02-21 14:30:00,
2013-02-21 06:35:00,43.1,-99.9,29.99,SW,228,0.0,0.0,-999,-99.99,,,-99.99,,2013-02-21 14:35:00,
2013-02-21 06:40:00,42.9,-99.9,30.00,SW,228,0.0,0.0,-999,-99.99,,,-99.99,,2013-02-21 14:40:00,
2013-02-21 06:50:00,42.6,-99.9,30.00,SW,228,0.0,0.0,-999,-99.99,,,-99.99,,2013-02-21 14:50:00,
2013-02-21 07:00:00,43.0,-99.9,30.00,SW,228,0.0,0.0,-999,-99.99,,,-99.99,,2013-02-21 15:00:00,
2013-02-21 07:05:00,43.3,-99.9,30.00,SW,228,0.0,0.0,-999,-99.99,,,-99.99,,2013-02-21 15:05:00,
2013-02-21 07:10:00,43.4,-99.9,30.00,SW,228,0.0,0.0,-999,-99.99,,,-99.99,,2013-02-21 15:10:00,
2013-02-21 07:20:00,42.4,-99.9,30.01,SW,228,0.0,0.0,-999,-99.99,,,-99.99,,2013-02-21 15:20:00,
2013-02-21 07:25:00,42.0,-99.9,30.01,SW,228,0.0,0.0,-999,-99.99,,,-99.99,,2013-02-21 15:25:00,
2013-02-21 07:30:00,42.1,-99.9,30.01,SW,228,0.0,0.0,-999,-99.99,,,-99.99,,2013-02-21 15:30:00,
2013-02-21 07:40:00,42.7,-99.9,30.01,SW,228,0.0,0.0,-999,-99.99,,,-99.99,,2013-02-21 15:40:00,
2013-02-21 07:45:00,42.5,-99.9,30.01,SW,228,0.0,0.0,-999,-99.99,,,-99.99,,2013-02-21 15:45:00,
2013-02-21 07:50:00,42.5,-99.9,30.02,SW,228,0.0,0.0,-999,-99.99,,,-99.99,,2013-02-21 15:50:00,
2013-02-21 08:00:00,42.4,-99.9,30.02,SW,228,0.0,0.0,-999,-99.99,,,-99.99,,2013-02-21 16:00:00,
2013-02-21 08:10:00,42.5,-99.9,30.03,SW,228,0.0,0.0,-999,-99.99,,,-99.99,,2013-02-21 16:10:00,
2013-02-21 08:20:00,42.4,-99.9,30.04,SW,228,0.0,0.0,-999,-99.99,,,-99.99,,2013-02-21 16:20:00,
2013-02-21 08:30:00,42.5,-99.9,30.04,SW,228,0.0,0.0,-999,-99.99,,,-99.99,,2013-02-21 16:30:00,
2013-02-21 08:40:00,42.7,-99.9,30.05,SW,228,0.0,0.0,-999,-99.99,,,-99.99,,2013-02-21 16:40:00,
2013-02-21 08:50:00,42.8,-99.9,30.05,WNW,292,0.0,7.9,-999,-99.99,,,-99.99,,2013-02-21 16:50:00,
2013-02-21 09:00:00,42.9,-99.9,30.05,WNW,296,0.0,0.0,-999,-99.99,,,-99.99,,2013-02-21 17:00:00,
2013-02-21 09:10:00,43.2,-99.9,30.06,WNW,296,0.0,0.0,-999,-99.99,,,-99.99,,2013-02-21 17:10:00,
2013-02-21 09:20:00,43.5,-99.9,30.06,WSW,249,0.0,0.0,-999,-99.99,,,-99.99,,2013-02-21 17:20:00,
2013-02-21 09:30:00,43.7,-99.9,30.06,WSW,249,0.0,0.0,-999,-99.99,,,-99.99,,2013-02-21 17:30:00,
2013-02-21 09:40:00,43.9,-99.9,30.06,West,269,0.0,0.0,-999,-99.99,,,-99.99,,2013-02-21 17:40:00,
2013-02-21 09:50:00,44.3,-99.9,30.07,WSW,237,0.0,0.0,-999,-99.99,,,-99.99,,2013-02-21 17:50:00,
2013-02-21 10:00:00,44.6,-99.9,30.07,West,272,11.1,17.9,-999,-99.99,,,-99.99,,2013-02-21 18:00:00,
2013-02-21 10:10:00,44.8,-99.9,30.07,WSW,249,0.0,0.0,-999,-99.99,,,-99.99,,2013-02-21 18:10:00,
2013-02-21 10:20:00,45.0,-99.9,30.07,SSW,196,0.0,0.0,-999,-99.99,,,-99.99,,2013-02-21 18:20:00,
2013-02-21 10:25:00,45.2,-99.9,30.07,NW,304,0.0,8.4,-999,-99.99,,,-99.99,,2013-02-21 18:25:00,
2013-02-21 10:30:00,45.7,-99.9,30.07,NW,304,0.0,8.5,-999,-99.99,,,-99.99,,2013-02-21 18:30:00,
2013-02-21 10:35:00,45.9,-99.9,30.07,WSW,256,13.4,21.2,-999,-99.99,,,-99.99,,2013-02-21 18:35:00,
2013-02-21 10:40:00,45.9,-99.9,30.07,West,261,0.0,0.0,-999,-99.99,,,-99.99,,2013-02-21 18:40:00,
2013-02-21 10:50:00,46.3,-99.9,30.08,West,261,0.0,0.0,-999,-99.99,,,-99.99,,2013-02-21 18:50:00,
2013-02-21 11:00:00,46.5,-99.9,30.08,NNW,333,0.0,0.0,-999,-99.99,,,-99.99,,2013-02-21 19:00:00,
2013-02-21 11:05:00,46.7,-99.9,30.08,NNW,333,0.0,0.0,-999,-99.99,,,-99.99,,2013-02-21 19:05:00,
2013-02-21 11:10:00,47.0,-99.9,30.07,WSW,238,0.0,0.0,-999,-99.99,,,-99.99,,2013-02-21 19:10:00,
2013-02-21 11:15:00,47.2,-99.9,30.07,West,269,0.0,0.0,-999,-99.99,,,-99.99,,2013-02-21 19:15:00,
2013-02-21 11:20:00,47.0,-99.9,30.07,WNW,303,0.0,0.0,-999,-99.99,,,-99.99,,2013-02-21 19:20:00,
2013-02-21 11:30:00,47.5,-99.9,30.06,West,275,0.0,0.0,-999,-99.99,,,-99.99,,2013-02-21 19:30:00,
2013-02-21 11:35:00,47.4,-99.9,30.06,West,275,0.0,0.0,-999,-99.99,,,-99.99,,2013-02-21 19:35:00,
2013-02-21 11:40:00,48.1,-99.9,30.07,North,359,0.0,7.4,-999,-99.99,,,-99.99,,2013-02-21 19:40:00,
2013-02-21 11:45:00,47.9,-99.9,30.07,WNW,287,0.0,0.0,-999,-99.99,,,-99.99,,2013-02-21 19:45:00,
2013-02-21 11:50:00,48.3,-99.9,30.06,West,278,0.0,0.0,-999,-99.99,,,-99.99,,2013-02-21 19:50:00,
2013-02-21 11:55:00,48.6,-99.9,30.06,West,280,0.0,8.9,-999,-99.99,,,-99.99,,2013-02-21 19:55:00,
2013-02-21 12:00:00,48.6,-99.9,30.06,SSW,204,0.0,0.0,-999,-99.99,,,-99.99,,2013-02-21 20:00:00,
2013-02-21 12:05:00,48.5,-99.9,30.06,SSW,204,0.0,0.0,-999,-99.99,,,-99.99,,2013-02-21 20:05:00,
2013-02-21 12:10:00,48.9,-99.9,30.06,NNE,14,0.0,0.0,-999,-99.99,,,-99.99,,2013-02-21 20:10:00,
2013-02-21 12:15:00,49.3,-99.9,30.06,SSE,149,0.0,12.2,-999,-99.99,,,-99.99,,2013-02-21 20:15:00,
2013-02-21 12:20:00,49.5,-99.9,30.05,SSW,211,0.0,10.9,-999,-99.99,,,-99.99,,2013-02-21 20:20:00,
2013-02-21 12:25:00,49.6,-99.9,30.05,SSW,206,0.0,9.0,-999,-99.99,,,-99.99,,2013-02-21 20:25:00,
2013-02-21 12:30:00,49.9,-99.9,30.05,SSE,163,0.0,0.0,-999,-99.99,,,-99.99,,2013-02-21 20:30:00,
2013-02-21 12:35:00,49.5,-99.9,30.05,SSE,163,0.0,0.0,-999,-99.99,,,-99.99,,2013-02-21 20:35:00,
2013-02-21 12:40:00,49.6,-99.9,30.05,SW,227,0.0,0.0,-999,-99.99,,,-99.99,,2013-02-21 20:40:00,
2013-02-21 12:45:00,50.0,-99.9,30.05,West,263,0.0,0.0,-999,-99.99,,,-99.99,,2013-02-21 20:45:00,
2013-02-21 12:50:00,50.4,-99.9,30.04,West,263,0.0,0.0,-999,-99.99,,,-99.99,,2013-02-21 20:50:00,
2013-02-21 12:55:00,50.2,-99.9,30.04,West,263,0.0,0.0,-999,-99.99,,,-99.99,,2013-02-21 20:55:00,
2013-02-21 13:00:00,50.5,-99.9,30.04,WSW,238,0.0,15.9,-999,-99.99,,,-99.99,,2013-02-21 21:00:00,
2013-02-21 13:05:00,50.6,-99.9,30.05,South,173,0.0,17.7,-999,-99.99,,,-99.99,,2013-02-21 21:05:00,
2013-02-21 13:10:00,50.8,-99.9,30.04,WNW,300,8.7,24.5,-999,-99.99,,,-99.99,,2013-02-21 21:10:00,
2013-02-21 13:15:00,50.9,-99.9,30.04,WSW,252,0.0,0.0,-999,-99.99,,,-99.99,,2013-02-21 21:15:00,
2013-02-21 13:20:00,51.0,-99.9,30.04,WSW,238,0.0,0.0,-999,-99.99,,,-99.99,,2013-02-21 21:20:00,
2013-02-21 13:25:00,51.2,-99.9,30.04,NW,310,8.9,25.3,-999,-99.99,,,-99.99,,2013-02-21 21:25:00,
2013-02-21 13:30:00,51.1,-99.9,30.04,WSW,237,0.0,0.0,-999,-99.99,,,-99.99,,2013-02-21 21:30:00,
2013-02-21 13:35:00,51.3,-99.9,30.04,NW,306,12.1,22.5,-999,-99.99,,,-99.99,,2013-02-21 21:35:00,
2013-02-21 13:40:00,52.0,-99.9,30.04,WNW,286,11.6,27.8,-999,-99.99,,,-99.99,,2013-02-21 21:40:00,
2013-02-21 13:45:00,52.3,-99.9,30.04,West,266,16.9,21.6,-999,-99.99,,,-99.99,,2013-02-21 21:45:00,
2013-02-21 13:50:00,51.6,-99.9,30.04,WSW,248,0.0,0.0,-999,-99.99,,,-99.99,,2013-02-21 21:50:00,
2013-02-21 13:55:00,52.1,-99.9,30.04,WSW,248,6.6,16.7,-999,-99.99,,,-99.99,,2013-02-21 21:55:00,
2013-02-21 14:00:00,52.4,-99.9,30.04,WNW,282,16.1,29.0,-999,-99.99,,,-99.99,,2013-02-21 22:00:00,
2013-02-21 14:05:00,52.8,-99.9,30.04,WSW,241,0.0,11.4,-999,-99.99,,,-99.99,,2013-02-21 22:05:00,
2013-02-21 14:10:00,53.0,-99.9,30.04,West,263,9.0,29.6,-999,-99.99,,,-99.99,,2013-02-21 22:10:00,
2013-02-21 14:15:00,53.1,-99.9,30.04,West,280,13.0,32.3,-999,-99.99,,,-99.99,,2013-02-21 22:15:00,
2013-02-21 14:20:00,53.2,-99.9,30.04,SW,228,13.4,22.4,-999,-99.99,,,-99.99,,2013-02-21 22:20:00,
2013-02-21 14:30:00,53.4,-99.9,30.04,NW,307,0.0,17.4,-999,-99.99,,,-99.99,,2013-02-21 22:30:00,
2013-02-21 14:35:00,53.3,-99.9,30.04,WNW,287,0.0,11.1,-999,-99.99,,,-99.99,,2013-02-21 22:35:00,
2013-02-21 14:40:00,53.5,-99.9,30.04,WNW,290,8.5,21.9,-999,-99.99,,,-99.99,,2013-02-21 22:40:00,
2013-02-21 14:45:00,53.4,-99.9,30.04,SW,228,0.0,0.0,-999,-99.99,,,-99.99,,2013-02-21 22:45:00,
2013-02-21 14:50:00,53.4,-99.9,30.04,NNE,15,8.0,15.4,-999,-99.99,,,-99.99,,2013-02-21 22:50:00,
2013-02-21 14:55:00,53.7,-99.9,30.04,West,279,15.3,17.9,-999,-99.99,,,-99.99,,2013-02-21 22:55:00,
2013-02-21 15:00:00,53.5,-99.9,30.04,SW,235,18.2,18.2,-999,-99.99,,,-99.99,,2013-02-21 23:00:00,
2013-02-21 15:05:00,53.9,-99.9,30.04,WNW,282,0.0,11.7,-999,-99.99,,,-99.99,,2013-02-21 23:05:00,
2013-02-21 15:10:00,54.0,-99.9,30.04,NW,309,11.1,20.6,-999,-99.99,,,-99.99,,2013-02-21 23:10:00,
2013-02-21 15:15:00,54.0,-99.9,30.04,NNW,328,0.0,11.3,-999,-99.99,,,-99.99,,2013-02-21 23:15:00,
2013-02-21 15:20:00,54.0,-99.9,30.04,West,269,0.0,13.2,-999,-99.99,,,-99.99,,2013-02-21 23:20:00,
2013-02-21 15:25:00,54.1,-99.9,30.04,West,272,5.1,7.6,-999,-99.99,,,-99.99,,2013-02-21 23:25:00,
2013-02-21 15:30:00,54.4,-99.9,30.04,WSW,254,0.0,21.4,-999,-99.99,,,-99.99,,2013-02-21 23:30:00,
2013-02-21 15:35:00,54.5,-99.9,30.04,WNW,296,12.6,17.2,-999,-99.99,,,-99.99,,2013-02-21 23:35:00,
2013-02-21 15:40:00,54.3,-99.9,30.03,West,266,0.0,14.2,-999,-99.99,,,-99.99,,2013-02-21 23:40:00,
2013-02-21 15:50:00,54.4,-99.9,30.03,West,280,0.0,0.0,-999,-99.99,,,-99.99,,2013-02-21 23:50:00,
2013-02-21 15:55:00,54.4,-99.9,30.03,West,261,0.0,0.0,-999,-99.99,,,-99.99,,2013-02-21 23:55:00,
2013-02-21 16:00:00,54.5,-99.9,30.03,West,279,0.0,8.0,-999,-99.99,,,-99.99,,2013-02-22 00:00:00,
2013-02-21 16:10:00,54.4,-99.9,30.03,WSW,242,0.0,0.0,-999,-99.99,,,-99.99,,2013-02-22 00:10:00,
2013-02-21 16:15:00,54.6,-99.9,30.03,SW,231,0.0,10.9,-999,-99.99,,,-99.99,,2013-02-22 00:15:00,
2013-02-21 16:20:00,54.5,-99.9,30.03,SW,231,0.0,0.0,-999,-99.99,,,-99.99,,2013-02-22 00:20:00,
2013-02-21 16:25:00,54.6,-99.9,30.04,West,269,0.0,11.3,-999,-99.99,,,-99.99,,2013-02-22 00:25:00,
2013-02-21 16:30:00,54.7,-99.9,30.04,West,269,0.0,0.0,-999,-99.99,,,-99.99,,2013-02-22 00:30:00,
2013-02-21 16:40:00,54.8,-99.9,30.04,West,269,0.0,0.0,-999,-99.99,,,-99.99,,2013-02-22 00:40:00,
2013-02-21 16:45:00,54.8,-99.9,30.03,WNW,293,11.1,14.2,-999,-99.99,,,-99.99,,2013-02-22 00:45:00,
2013-02-21 16:50:00,54.8,-99.9,30.04,WNW,295,0.0,9.0,-999,-99.99,,,-99.99,,2013-02-22 00:50:00,
2013-02-21 16:55:00,54.6,-99.9,30.04,NW,309,0.0,0.0,-999,-99.99,,,-99.99,,2013-02-22 00:55:00,
2013-02-21 17:00:00,54.6,-99.9,30.04,NW,309,0.0,0.0,-999,-99.99,,,-99.99,,2013-02-22 01:00:00,
2013-02-21 17:10:00,54.5,-99.9,30.04,NW,309,0.0,0.0,-999,-99.99,,,-99.99,,2013-02-22 01:10:00,
2013-02-21 17:20:00,54.4,-99.9,30.04,NW,309,0.0,0.0,-999,-99.99,,,-99.99,,2013-02-22 01:20:00,
2013-02-21 17:30:00,54.1,-99.9,30.05,NW,309,0.0,0.0,-999,-99.99,,,-99.99,,2013-02-22 01:30:00,
2013-02-21 17:40:00,53.8,-99.9,30.04,NW,309,0.0,0.0,-999,-99.99,,,-99.99,,2013-02-22 01:40:00,
2013-02-21 17:50:00,53.5,-99.9,30.04,NW,309,0.0,0.0,-999,-99.99,,,-99.99,,2013-02-22 01:50:00,
2013-02-21 17:55:00,53.4,-99.9,30.04,NW,309,0.0,0.0,-999,-99.99,,,-99.99,,2013-02-22 01:55:00,
2013-02-21 18:00:00,53.5,-99.9,30.04,NW,309,0.0,0.0,-999,-99.99,,,-99.99,,2013-02-22 02:00:00,
2013-02-21 18:05:00,53.5,-99.9,30.04,NW,309,0.0,0.0,-999,-99.99,,,-99.99,,2013-02-22 02:05:00,
2013-02-21 18:10:00,53.5,-99.9,30.04,NW,309,0.0,0.0,-999,-99.99,,,-99.99,,2013-02-22 02:10:00,
2013-02-21 18:15:00,53.5,-99.9,30.04,NW,309,0.0,0.0,-999,-99.99,,,-99.99,,2013-02-22 02:15:00,
2013-02-21 18:20:00,53.5,-99.9,30.04,NW,309,0.0,0.0,-999,-99.99,,,-99.99,,2013-02-22 02:20:00,
2013-02-21 18:25:00,53.4,-99.9,30.04,NW,309,0.0,0.0,-999,-99.99,,,-99.99,,2013-02-22 02:25:00,
2013-02-21 18:30:00,53.3,-99.9,30.04,NW,309,0.0,0.0,-999,-99.99,,,-99.99,,2013-02-22 02:30:00,
2013-02-21 18:40:00,53.1,-99.9,30.05,NW,309,0.0,0.0,-999,-99.99,,,-99.99,,2013-02-22 02:40:00,
2013-02-21 18:45:00,53.1,-99.9,30.05,NW,309,0.0,0.0,-999,-99.99,,,-99.99,,2013-02-22 02:45:00,
2013-02-21 18:50:00,52.9,-99.9,30.05,NW,309,0.0,0.0,-999,-99.99,,,-99.99,,2013-02-22 02:50:00,
2013-02-21 19:00:00,52.8,-99.9,30.06,NW,309,0.0,0.0,-999,-99.99,,,-99.99,,2013-02-22 03:00:00,
2013-02-21 19:10:00,52.8,-99.9,30.06,NW,309,0.0,0.0,-999,-99.99,,,-99.99,,2013-02-22 03:10:00,
2013-02-21 19:15:00,51.9,-99.9,30.06,NW,309,0.0,0.0,-999,-99.99,,,-99.99,,2013-02-22 03:15:00,
2013-02-21 19:20:00,52.1,-99.9,30.06,NW,309,0.0,0.0,-999,-99.99,,,-99.99,,2013-02-22 03:20:00,
2013-02-21 19:30:00,52.0,-99.9,30.06,NW,309,0.0,0.0,-999,-99.99,,,-99.99,,2013-02-22 03:30:00,
2013-02-21 19:40:00,51.7,-99.9,30.06,NW,309,0.0,0.0,-999,-99.99,,,-99.99,,2013-02-22 03:40:00,
2013-02-21 19:50:00,51.6,-99.9,30.06,NW,309,0.0,0.0,-999,-99.99,,,-99.99,,2013-02-22 03:50:00,
2013-02-21 20:00:00,50.9,-99.9,30.06,NW,309,0.0,0.0,-999,-99.99,,,-99.99,,2013-02-22 04:00:00,
2013-02-21 20:10:00,51.4,-99.9,30.06,NW,309,0.0,0.0,-999,-99.99,,,-99.99,,2013-02-22 04:10:00,
2013-02-21 20:20:00,51.4,-99.9,30.06,NW,309,0.0,0.0,-999,-99.99,,,-99.99,,2013-02-22 04:20:00,
2013-02-21 20:30:00,50.6,-99.9,30.06,NW,309,0.0,0.0,-999,-99.99,,,-99.99,,2013-02-22 04:30:00,
2013-02-21 20:40:00,49.9,-99.9,30.06,NW,309,0.0,0.0,-999,-99.99,,,-99.99,,2013-02-22 04:40:00,
2013-02-21 20:50:00,49.5,-99.9,30.06,NW,309,0.0,0.0,-999,-99.99,,,-99.99,,2013-02-22 04:50:00,
2013-02-21 21:00:00,50.1,-99.9,30.07,NW,309,0.0,0.0,-999,-99.99,,,-99.99,,2013-02-22 05:00:00,
2013-02-21 21:05:00,49.4,-99.9,30.07,NW,309,0.0,0.0,-999,-99.99,,,-99.99,,2013-02-22 05:05:00,
2013-02-21 21:10:00,49.5,-99.9,30.07,NW,309,0.0,0.0,-999,-99.99,,,-99.99,,2013-02-22 05:10:00,
2013-02-21 21:20:00,49.1,-99.9,30.07,NW,309,0.0,0.0,-999,-99.99,,,-99.99,,2013-02-22 05:20:00,
2013-02-21 21:30:00,48.9,-99.9,30.07,NW,309,0.0,0.0,-999,-99.99,,,-99.99,,2013-02-22 05:30:00,
2013-02-21 21:40:00,48.5,-99.9,30.08,NW,309,0.0,0.0,-999,-99.99,,,-99.99,,2013-02-22 05:40:00,
2013-02-21 21:50:00,48.7,-99.9,30.08,NW,309,0.0,0.0,-999,-99.99,,,-99.99,,2013-02-22 05:50:00,
2013-02-21 21:55:00,49.2,-99.9,30.08,NW,309,0.0,0.0,-999,-99.99,,,-99.99,,2013-02-22 05:55:00,
2013-02-21 22:00:00,48.4,-99.9,30.08,NW,309,0.0,0.0,-999,-99.99,,,-99.99,,2013-02-22 06:00:00,
2013-02-21 22:10:00,47.5,-99.9,30.08,NW,309,0.0,0.0,-999,-99.99,,,-99.99,,2013-02-22 06:10:00,
2013-02-21 22:15:00,48.0,-99.9,30.08,NW,309,0.0,0.0,-999,-99.99,,,-99.99,,2013-02-22 06:15:00,
2013-02-21 22:20:00,48.1,-99.9,30.08,NW,309,0.0,0.0,-999,-99.99,,,-99.99,,2013-02-22 06:20:00,
2013-02-21 22:30:00,47.8,-99.9,30.09,NW,309,0.0,0.0,-999,-99.99,,,-99.99,,2013-02-22 06:30:00,
2013-02-21 22:35:00,48.0,-99.9,30.09,NW,309,0.0,0.0,-999,-99.99,,,-99.99,,2013-02-22 06:35:00,
2013-02-21 22:40:00,47.4,-99.9,30.09,NW,309,0.0,0.0,-999,-99.99,,,-99.99,,2013-02-22 06:40:00,
2013-02-21 22:45:00,48.0,-99.9,30.09,NW,309,0.0,0.0,-999,-99.99,,,-99.99,,2013-02-22 06:45:00,
2013-02-21 22:50:00,47.7,-99.9,30.09,NW,309,0.0,0.0,-999,-99.99,,,-99.99,,2013-02-22 06:50:00,
2013-02-21 23:00:00,47.6,-99.9,30.09,NW,309,0.0,0.0,-999,-99.99,,,-99.99,,2013-02-22 07:00:00,
2013-02-21 23:05:00,47.0,-99.9,30.09,NW,309,0.0,0.0,-999,-99.99,,,-99.99,,2013-02-22 07:05:00,
2013-02-21 23:10:00,47.8,-99.9,30.09,NW,309,0.0,0.0,-999,-99.99,,,-99.99,,2013-02-22 07:10:00,
2013-02-21 23:15:00,48.0,-99.9,30.08,NW,309,0.0,0.0,-999,-99.99,,,-99.99,,2013-02-22 07:15:00,
2013-02-21 23:20:00,48.1,-99.9,30.08,NW,309,0.0,0.0,-999,-99.99,,,-99.99,,2013-02-22 07:20:00,
2013-02-21 23:25:00,47.5,-99.9,30.08,NW,309,0.0,0.0,-999,-99.99,,,-99.99,,2013-02-22 07:25:00,
2013-02-21 23:30:00,47.0,-99.9,30.08,NW,309,0.0,0.0,-999,-99.99,,,-99.99,,2013-02-22 07:30:00,
2013-02-21 23:35:00,47.0,-99.9,30.08,NW,309,0.0,0.0,-999,-99.99,,,-99.99,,2013-02-22 07:35:00,
2013-02-21 23:40:00,46.9,-99.9,30.08,NW,309,0.0,0.0,-999,-99.99,,,-99.99,,2013-02-22 07:40:00,
2013-02-21 23:50:00,46.9,-99.9,30.09,NW,309,0.0,0.0,-999,-99.99,,,-99.99,,2013-02-22 07:50:00,
2013-02-21 23:55:00,47.1,-99.9,30.09,NW,309,0.0,0.0,-999,-99.99,,,-99.99,,2013-02-22 07:55:00,